KB1FPD Weather Reports


Display with metric or nautical units.
time (UTC)temp
F
wind
direction
speed
MPH
gust
MPH
rain 1hr
in
rain 24hr
in
rain mn
in
humidity
%
barometer
mb
20260507130505 50 355 4.0 9.0 0.00 0.17 0.00 62 1013.3
20260507130005 50 327 4.0 9.0 0.00 0.18 0.00 62 1013.3
20260507125506 50 332 4.0 10.0 0.00 0.19 0.00 59 1013.4
20260507125004 50 315 4.0 10.0 0.00 0.19 0.00 62 1013.2
20260507124505 50 319 3.0 9.0 0.00 0.20 0.00 62 1013.2
20260507124005 49 326 2.0 7.0 0.00 0.21 0.00 65 1013.2
20260507123504 49 328 3.0 8.0 0.00 0.21 0.00 66 1013.1
20260507123005 49 326 3.0 8.0 0.00 0.22 0.00 67 1012.8
20260507122503 49 347 3.0 9.0 0.00 0.22 0.00 69 1012.8
20260507121956 49 316 4.0 9.0 0.00 0.23 0.00 68 1012.8
20260507121456 49 340 3.0 8.0 0.00 0.23 0.00 68 1012.7
20260507120957 49 312 3.0 8.0 0.00 0.23 0.00 69 1012.7
20260507120457 49 328 2.0 6.0 0.00 0.24 0.00 69 1012.9
20260507115957 49 282 2.0 4.0 0.00 0.24 0.00 74 1012.8
20260507115457 48 280 2.0 8.0 0.00 0.25 0.00 71 1013.1
20260507114958 48 278 2.0 8.0 0.00 0.26 0.00 70 1013.1
20260507114457 48 255 2.0 7.0 0.00 0.26 0.00 69 1013.1
20260507113957 48 314 2.0 4.0 0.00 0.27 0.00 67 1013.2
20260507113456 48 324 3.0 8.0 0.00 0.27 0.00 66 1013.1
20260507112957 48 331 2.0 8.0 0.00 0.27 0.00 66 1013.1
20260507112456 48 327 2.0 6.0 0.00 0.28 0.00 70 1012.9
20260507111956 48 328 2.0 6.0 0.00 0.29 0.00 68 1013.1
20260507111456 48 291 2.0 5.0 0.00 0.30 0.00 67 1012.8
20260507110956 48 279 2.0 6.0 0.00 0.30 0.00 68 1012.8
20260507110453 48 334 3.0 6.0 0.00 0.31 0.00 66 1012.8
20260507105948 48 294 3.0 7.0 0.00 0.31 0.00 68 1012.7
20260507105449 48 287 2.0 8.0 0.00 0.31 0.00 68 1012.6
20260507104949 48 255 2.0 8.0 0.00 0.31 0.00 68 1012.7
20260507104449 48 261 2.0 5.0 0.00 0.31 0.00 68 1012.5
20260507103949 48 309 2.0 8.0 0.00 0.31 0.00 67 1012.5
20260507103446 48 269 1.0 8.0 0.00 0.31 0.00 67 1012.3
20260507102946 48 356 1.0 7.0 0.00 0.31 0.00 67 1012.4
20260507102449 48 30 1.0 7.0 0.00 0.31 0.00 67 1012.4
20260507101947 48 351 1.0 8.0 0.00 0.31 0.00 67 1012.3
20260507101448 48 351 2.0 9.0 0.00 0.31 0.00 66 1012.2
20260507100944 48 2 2.0 9.0 0.00 0.31 0.00 68 1012.2
20260507100446 48 323 2.0 7.0 0.00 0.31 0.00 68 1012.1
20260507095945 48 267 3.0 7.0 0.00 0.31 0.00 70 1012.0
20260507095448 48 295 3.0 7.0 0.00 0.31 0.00 68 1011.9
20260507094945 48 319 2.0 6.0 0.00 0.31 0.00 70 1011.9
20260507094438 48 6 3.0 8.0 0.00 0.31 0.00 70 1011.9
20260507093938 48 305 3.0 8.0 0.00 0.31 0.00 70 1011.9
20260507093438 48 313 3.0 7.0 0.00 0.31 0.00 72 1011.9
20260507092938 48 313 2.0 7.0 0.00 0.31 0.00 72 1011.9
20260507092436 48 332 2.0 8.0 0.00 0.31 0.00 72 1012.0
20260507091935 49 355 2.0 9.0 0.00 0.31 0.00 73 1012.0
20260507091435 49 329 2.0 9.0 0.00 0.31 0.00 74 1012.0
20260507090934 49 330 2.0 6.0 0.00 0.31 0.00 74 1012.0
20260507090434 49 331 3.0 9.0 0.00 0.31 0.00 76 1012.0
20260507085938 49 328 3.0 9.0 0.00 0.31 0.00 75 1012.1
20260507085434 49 332 3.0 7.0 0.00 0.31 0.00 78 1011.9
20260507084934 49 284 3.0 7.0 0.00 0.31 0.00 78 1011.9
20260507084436 49 290 2.0 6.0 0.00 0.31 0.00 78 1011.9
20260507083936 49 276 3.0 6.0 0.00 0.31 0.00 77 1011.8
20260507083436 49 307 3.0 8.0 0.00 0.31 0.00 77 1011.8
20260507082935 49 342 3.0 10.0 0.00 0.31 0.00 77 1011.9
20260507082434 49 342 4.0 11.0 0.00 0.31 0.00 76 1011.8
20260507081934 49 0 4.0 11.0 0.00 0.31 0.00 76 1011.7
20260507081444 49 334 5.0 13.0 0.00 0.31 0.00 76 1011.7
20260507080937 49 346 5.0 13.0 0.00 0.31 0.00 76 1011.6
20260507080438 50 351 5.0 13.0 0.00 0.31 0.00 75 1011.4
20260507075935 50 322 4.0 13.0 0.00 0.31 0.00 75 1011.2
20260507075435 50 337 3.0 8.0 0.00 0.31 0.00 77 1011.1
20260507074933 50 353 2.0 9.0 0.00 0.31 0.00 78 1011.1
20260507074436 50 286 3.0 9.0 0.00 0.31 0.00 78 1011.1
20260507073933 50 336 3.0 8.0 0.00 0.31 0.00 79 1011.1
20260507073433 50 3 2.0 8.0 0.00 0.31 0.00 80 1011.1
20260507072937 50 299 2.0 10.0 0.00 0.31 0.00 81 1011.0
20260507072433 50 317 3.0 10.0 0.00 0.31 0.00 81 1011.0
20260507071934 50 247 2.0 7.0 0.00 0.31 0.00 81 1011.3
20260507071436 50 322 1.0 6.0 0.00 0.31 0.00 82 1011.5
20260507070933 50 337 2.0 8.0 0.00 0.31 0.00 82 1011.4
20260507070433 50 334 2.0 8.0 0.00 0.31 0.00 82 1011.7
20260507065932 50 345 2.0 8.0 0.00 0.31 0.00 82 1011.7
20260507065433 50 315 2.0 11.0 0.00 0.31 0.00 82 1011.7
20260507064932 50 3 2.0 11.0 0.00 0.31 0.00 82 1011.7
20260507064432 51 351 3.0 9.0 0.00 0.31 0.00 81 1011.8
20260507063929 51 332 4.0 10.0 0.00 0.31 0.00 81 1011.7
20260507063430 51 335 4.0 10.0 0.00 0.31 0.00 81 1011.8
20260507062930 51 301 3.0 9.0 0.00 0.31 0.00 82 1011.8
20260507062429 51 307 3.0 10.0 0.00 0.31 0.00 83 1011.7
20260507061928 51 334 3.0 10.0 0.00 0.31 0.00 83 1011.5
20260507061429 51 351 3.0 10.0 0.00 0.31 0.00 84 1011.5
20260507060928 51 351 3.0 10.0 0.00 0.31 0.00 85 1011.6
20260507060427 51 331 3.0 10.0 0.00 0.31 0.00 84 1011.7
20260507055931 51 301 2.0 9.0 0.00 0.31 0.00 84 1011.7
20260507055429 51 345 2.0 9.0 0.00 0.31 0.00 85 1011.6
20260507054930 51 332 3.0 8.0 0.00 0.31 0.00 85 1011.5
20260507054428 51 279 2.0 8.0 0.00 0.31 0.00 85 1011.7
20260507053933 51 351 2.0 5.0 0.00 0.31 0.00 85 1011.6
20260507053428 51 15 2.0 6.0 0.00 0.31 0.00 85 1011.5
20260507052926 51 325 2.0 7.0 0.00 0.31 0.00 86 1011.6
20260507052427 51 20 2.0 7.0 0.00 0.31 0.00 86 1011.4
20260507051927 51 348 2.0 5.0 0.00 0.31 0.00 86 1011.2
20260507051433 51 321 2.0 7.0 0.00 0.31 0.00 86 1011.3
20260507050925 51 326 1.0 7.0 0.00 0.31 0.00 86 1011.4
20260507050421 51 335 1.0 6.0 0.00 0.31 0.00 86 1011.6
20260507045917 51 350 1.0 4.0 0.00 0.31 0.00 86 1011.5
20260507045414 51 331 1.0 5.0 0.00 0.31 0.00 86 1011.4
20260507044906 52 76 2.0 5.0 0.00 0.31 0.00 86 1011.3
20260507044414 52 326 2.0 11.0 0.00 0.31 0.00 86 1011.3
20260507043905 52 300 4.0 11.0 0.00 0.31 0.00 86 1011.2
20260507043406 52 244 4.0 10.0 0.00 0.31 0.00 86 1011.0
20260507042906 52 334 4.0 10.0 0.00 0.31 0.00 86 1011.2
20260507042405 52 319 4.0 9.0 0.00 0.31 0.00 87 1011.1
20260507041913 52 299 4.0 11.0 0.00 0.31 0.00 87 1011.6
20260507041406 52 327 4.0 12.0 0.00 0.31 0.00 87 1011.7
20260507040909 52 327 4.0 12.0 0.00 0.31 0.00 87 1011.4
20260507040406 52 338 4.0 13.0 0.00 0.31 0.00 87 1011.5
20260507035908 52 348 3.0 13.0 0.00 0.31 0.31 87 1011.5
20260507035405 52 350 2.0 8.0 0.00 0.31 0.31 88 1011.3
20260507034905 52 249 2.0 6.0 0.00 0.31 0.31 88 1011.3
20260507034406 52 10 3.0 9.0 0.00 0.31 0.31 88 1011.2
20260507033907 52 51 3.0 11.0 0.00 0.31 0.31 88 1011.1
20260507033404 52 326 3.0 11.0 0.00 0.31 0.31 89 1011.3
20260507032903 52 298 4.0 16.0 0.00 0.31 0.31 89 1011.1
20260507032402 53 330 4.0 16.0 0.00 0.31 0.31 89 1011.3
20260507031900 53 1 3.0 11.0 0.00 0.31 0.31 89 1011.2
20260507031404 53 353 4.0 11.0 0.00 0.31 0.31 89 1011.3
20260507030901 53 308 4.0 14.0 0.00 0.31 0.31 89 1011.2
20260507030400 53 263 3.0 14.0 0.00 0.31 0.31 89 1011.2
20260507025901 53 350 3.0 8.0 0.00 0.31 0.31 89 1011.2
20260507025401 53 348 2.0 7.0 0.00 0.31 0.31 89 1011.2
20260507024904 53 301 2.0 12.0 0.00 0.31 0.31 89 1010.9
20260507024406 53 341 2.0 12.0 0.00 0.31 0.31 89 1010.8
20260507023901 54 348 2.0 9.0 0.00 0.31 0.31 89 1010.8
20260507023401 54 33 3.0 12.0 0.00 0.31 0.31 89 1010.9
20260507022902 54 349 4.0 12.0 0.00 0.31 0.31 89 1010.7
20260507022401 54 355 4.0 11.0 0.00 0.31 0.31 89 1010.8
20260507021857 54 61 4.0 11.0 0.00 0.31 0.31 89 1010.8
20260507021356 54 40 5.0 16.0 0.00 0.31 0.31 89 1010.7
20260507020902 54 329 5.0 16.0 0.00 0.31 0.31 89 1010.8
20260507020356 54 305 5.0 14.0 0.00 0.31 0.31 89 1010.7
20260507015857 54 344 5.0 14.0 0.00 0.31 0.31 89 1010.7
20260507015355 54 3 5.0 14.0 0.00 0.31 0.31 90 1010.8
20260507014854 54 332 4.0 14.0 0.00 0.31 0.31 90 1010.7
20260507014355 55 344 4.0 12.0 0.00 0.31 0.31 90 1010.9
20260507013851 55 318 5.0 14.0 0.00 0.31 0.31 90 1010.8
20260507013352 55 313 5.0 14.0 0.00 0.31 0.31 90 1010.7
20260507012852 55 346 5.0 13.0 0.00 0.31 0.31 91 1010.7
20260507012352 55 325 6.0 14.0 0.00 0.31 0.31 91 1010.7
20260507011850 55 318 6.0 14.0 0.00 0.31 0.31 91 1010.6
20260507011355 55 325 6.0 14.0 0.00 0.31 0.31 91 1010.5
20260507010852 55 262 6.0 14.0 0.00 0.31 0.31 91 1010.5
20260507010354 55 296 5.0 13.0 0.00 0.31 0.31 92 1010.6
20260507005854 55 281 6.0 13.0 0.00 0.31 0.31 92 1010.8
20260507005351 55 267 6.0 15.0 0.00 0.31 0.31 92 1010.8
20260507004853 56 265 5.0 15.0 0.00 0.31 0.31 92 1011.0
20260507004352 56 284 5.0 12.0 0.00 0.31 0.31 92 1010.9
20260507003856 56 330 5.0 14.0 0.00 0.31 0.31 92 1010.5
20260507003352 56 213 5.0 14.0 0.00 0.31 0.31 92 1010.6
20260507002853 56 311 5.0 12.0 0.00 0.31 0.31 92 1010.6
20260507002402 56 293 5.0 13.0 0.00 0.31 0.31 93 1010.6
20260507001905 56 267 5.0 13.0 0.00 0.31 0.31 93 1010.4
20260507001354 57 257 6.0 14.0 0.00 0.31 0.31 93 1010.4
20260507000854 57 257 7.0 14.0 0.00 0.31 0.31 93 1010.5
20260507000402 57 280 7.0 14.0 0.00 0.31 0.31 93 1010.4
20260506235859 57 247 6.0 13.0 0.00 0.31 0.31 93 1010.4
20260506235401 58 243 6.0 13.0 0.01 0.31 0.31 93 1010.0
20260506234854 58 296 6.0 12.0 0.01 0.31 0.31 93 1009.8
20260506234403 59 317 5.0 12.0 0.01 0.31 0.31 93 1010.0
20260506233856 59 311 5.0 12.0 0.01 0.31 0.31 93 1010.0
20260506233357 60 278 5.0 14.0 0.01 0.31 0.31 94 1009.4
20260506232900 60 291 5.0 14.0 0.01 0.31 0.31 94 1009.3
20260506232400 60 263 6.0 14.0 0.01 0.31 0.31 94 1009.4
20260506231858 60 274 5.0 14.0 0.01 0.31 0.31 94 1009.4
20260506231355 60 267 5.0 14.0 0.01 0.31 0.31 94 1009.4
20260506230856 60 261 4.0 12.0 0.01 0.31 0.31 94 1009.2
20260506230405 60 262 4.0 10.0 0.01 0.31 0.31 94 1009.4
20260506225851 60 262 4.0 10.0 0.01 0.31 0.30 94 1009.5
20260506225353 60 269 4.0 8.0 0.00 0.30 0.30 94 1009.4
20260506224852 60 271 3.0 9.0 0.00 0.30 0.30 94 1009.4
20260506224350 60 282 3.0 9.0 0.00 0.30 0.30 94 1009.4
20260506223849 61 271 3.0 8.0 0.00 0.30 0.30 94 1009.2
20260506223349 61 257 3.0 8.0 0.00 0.30 0.30 94 1009.1
20260506222849 61 290 3.0 7.0 0.00 0.30 0.30 94 1009.0
20260506222350 62 262 3.0 7.0 0.00 0.30 0.30 94 1009.0
20260506221851 62 242 2.0 7.0 0.01 0.30 0.30 94 1009.1
20260506221348 62 273 2.0 4.0 0.02 0.30 0.30 95 1009.1
20260506220852 61 273 1.0 4.0 0.02 0.30 0.30 95 1009.0
20260506220346 61 205 0.0 0.0 0.02 0.30 0.30 94 1009.1
20260506215845 61 205 0.0 0.0 0.02 0.30 0.30 94 1009.2
20260506215342 61 205 1.0 3.0 0.02 0.30 0.30 94 1009.1
20260506214839 61 205 1.0 3.0 0.02 0.30 0.30 94 1009.1
20260506214337 61 205 1.0 3.0 0.02 0.30 0.30 94 1009.1
20260506213834 61 204 1.0 3.0 0.02 0.30 0.30 94 1009.1
20260506213335 61 202 1.0 3.0 0.02 0.30 0.30 94 1009.0
20260506212838 61 201 1.0 3.0 0.02 0.30 0.30 94 1009.0
20260506212329 61 201 2.0 4.0 0.02 0.30 0.30 94 1008.9
20260506211826 61 201 1.0 4.0 0.01 0.29 0.29 94 1008.9
20260506211320 61 179 1.0 4.0 0.00 0.28 0.28 94 1008.8
20260506210821 61 177 1.0 4.0 0.00 0.28 0.28 94 1008.7
20260506210316 61 177 1.0 2.0 0.00 0.28 0.28 94 1008.5
20260506205815 61 177 1.0 2.0 0.00 0.28 0.28 94 1008.6
20260506205312 61 177 0.0 2.0 0.00 0.28 0.28 94 1008.5
20260506204810 61 177 0.0 2.0 0.00 0.28 0.28 94 1008.6
20260506204310 61 177 0.0 4.0 0.00 0.28 0.28 94 1008.6
20260506203807 61 177 1.0 6.0 0.00 0.28 0.28 94 1008.5
20260506203309 61 177 1.0 6.0 0.00 0.28 0.28 94 1008.3
20260506202808 61 179 0.0 4.0 0.00 0.28 0.28 94 1008.4
20260506202313 61 179 0.0 2.0 0.00 0.28 0.28 94 1008.4
20260506201811 61 179 1.0 5.0 0.00 0.28 0.28 94 1008.5
20260506201312 61 179 2.0 6.0 0.00 0.28 0.28 94 1008.5
20260506200808 61 174 2.0 6.0 0.00 0.28 0.28 94 1008.5
20260506200306 61 161 2.0 4.0 0.00 0.28 0.28 94 1008.4
20260506195805 61 158 2.0 7.0 0.00 0.28 0.28 94 1008.5
20260506195306 61 151 3.0 7.0 0.00 0.28 0.28 94 1008.5
20260506194801 61 164 3.0 7.0 0.01 0.28 0.28 94 1008.4
20260506194259 61 163 3.0 7.0 0.01 0.28 0.28 94 1008.4
20260506193800 61 152 3.0 7.0 0.01 0.28 0.28 94 1008.5
20260506193258 61 168 3.0 7.0 0.02 0.28 0.28 94 1008.5
20260506192800 61 171 3.0 7.0 0.02 0.28 0.28 94 1008.5
20260506192259 61 176 3.0 7.0 0.02 0.28 0.28 94 1008.5
20260506191759 62 189 2.0 6.0 0.02 0.28 0.28 94 1008.6
20260506191258 62 197 2.0 6.0 0.02 0.28 0.28 94 1008.5
20260506190800 62 223 2.0 5.0 0.03 0.28 0.28 95 1008.6
20260506190257 61 223 2.0 5.0 0.03 0.28 0.28 95 1008.5
20260506185756 61 221 2.0 5.0 0.03 0.28 0.28 94 1008.6
20260506185259 60 222 2.0 5.0 0.04 0.28 0.27 94 1008.6
20260506184756 60 224 2.0 5.0 0.03 0.27 0.27 94 1008.7
20260506184259 60 226 2.0 6.0 0.03 0.27 0.27 94 1008.7
20260506183756 60 230 3.0 6.0 0.03 0.27 0.27 94 1008.8
20260506183253 60 184 4.0 7.0 0.02 0.26 0.26 94 1008.7
20260506182755 60 222 3.0 8.0 0.02 0.26 0.26 94 1008.8
20260506182251 60 213 3.0 10.0 0.02 0.26 0.26 94 1008.8
20260506181749 60 204 3.0 10.0 0.02 0.26 0.26 94 1008.8
20260506181250 60 183 4.0 9.0 0.02 0.26 0.26 94 1008.8
20260506180748 60 208 4.0 10.0 0.01 0.25 0.25 94 1008.8
20260506180248 60 236 4.0 11.0 0.01 0.25 0.25 94 1008.7
20260506175748 60 182 4.0 11.0 0.01 0.25 0.25 94 1008.8
20260506175246 60 195 4.0 10.0 0.00 0.24 0.24 94 1008.8
20260506174749 60 191 4.0 11.0 0.00 0.24 0.24 94 1008.8
20260506174245 60 203 4.0 11.0 0.00 0.24 0.24 94 1008.8
20260506173747 60 234 4.0 9.0 0.00 0.24 0.24 94 1008.7
20260506173246 59 228 4.0 10.0 0.00 0.24 0.24 94 1008.6
20260506172744 59 178 4.0 11.0 0.00 0.24 0.24 94 1008.7
20260506172248 59 195 4.0 11.0 0.00 0.24 0.24 94 1008.7
20260506171743 59 193 4.0 11.0 0.00 0.24 0.24 94 1008.7
20260506171244 59 190 4.0 11.0 0.00 0.24 0.24 94 1008.7
20260506170739 59 195 5.0 10.0 0.00 0.24 0.24 94 1008.6
20260506170240 59 154 6.0 12.0 0.00 0.24 0.24 94 1008.7
20260506165738 59 158 6.0 12.0 0.00 0.24 0.24 94 1008.7
20260506165240 59 155 5.0 12.0 0.00 0.24 0.24 94 1008.7
20260506164740 59 184 6.0 14.0 0.00 0.24 0.24 94 1008.8
20260506164240 59 165 6.0 14.0 0.00 0.24 0.24 94 1008.7
20260506163744 59 139 7.0 13.0 0.00 0.24 0.24 94 1008.8
20260506163239 58 182 8.0 13.0 0.00 0.24 0.24 94 1008.7
20260506162739 58 142 7.0 13.0 0.00 0.24 0.24 94 1008.8
20260506162240 58 176 7.0 15.0 0.00 0.24 0.24 94 1008.9
20260506161739 58 170 7.0 15.0 0.00 0.24 0.24 94 1008.8
20260506161239 58 158 6.0 14.0 0.00 0.24 0.24 94 1008.8
20260506160739 58 182 7.0 14.0 0.00 0.24 0.24 94 1008.7
20260506160238 58 219 7.0 13.0 0.00 0.24 0.24 94 1008.6
20260506155737 58 172 8.0 16.0 0.00 0.24 0.24 94 1008.7
20260506155236 58 191 8.0 17.0 0.00 0.24 0.24 94 1008.8
20260506154734 58 173 8.0 17.0 0.00 0.24 0.24 94 1008.9
20260506154235 58 169 7.0 18.0 0.00 0.24 0.24 94 1009.0
20260506153734 58 184 7.0 18.0 0.01 0.24 0.24 94 1008.9
20260506153235 58 173 8.0 14.0 0.02 0.24 0.24 94 1008.9
20260506152738 58 147 7.0 16.0 0.02 0.24 0.24 94 1008.7
20260506152234 58 160 8.0 16.0 0.02 0.24 0.24 94 1008.7
20260506151735 58 220 8.0 19.0 0.02 0.24 0.24 94 1008.8
20260506151235 58 203 8.0 19.0 0.03 0.24 0.24 94 1008.6
20260506150735 58 136 8.0 15.0 0.04 0.24 0.24 94 1008.7
20260506150235 58 168 8.0 15.0 0.04 0.24 0.24 94 1008.8
20260506145736 58 171 7.0 15.0 0.05 0.24 0.24 94 1008.9
20260506145238 58 155 8.0 16.0 0.05 0.24 0.24 94 1008.8
20260506144735 58 149 8.0 16.0 0.06 0.24 0.24 93 1008.7
20260506144234 58 169 7.0 19.0 0.06 0.24 0.23 93 1008.8
20260506143738 58 159 7.0 19.0 0.06 0.23 0.23 93 1008.9
20260506143234 58 160 6.0 13.0 0.05 0.22 0.22 94 1009.0
20260506142735 58 209 6.0 15.0 0.06 0.22 0.22 94 1009.2
20260506142236 58 160 7.0 18.0 0.07 0.22 0.22 94 1009.4
20260506141735 57 206 7.0 18.0 0.07 0.22 0.22 93 1009.4
20260506141234 57 178 6.0 17.0 0.07 0.21 0.21 93 1009.5
20260506140736 57 201 7.0 19.0 0.06 0.20 0.20 93 1009.4
20260506140235 57 159 6.0 19.0 0.07 0.20 0.19 93 1009.4
20260506135734 57 133 7.0 16.0 0.06 0.19 0.19 93 1009.2
20260506135234 57 251 8.0 18.0 0.07 0.19 0.19 93 1009.2
20260506134735 57 141 7.0 19.0 0.07 0.18 0.18 93 1009.1
20260506134237 57 159 7.0 19.0 0.07 0.18 0.17 93 1009.3
20260506133734 57 155 7.0 16.0 0.07 0.17 0.17 93 1009.1
20260506133236 57 209 6.0 16.0 0.08 0.17 0.16 93 1009.1
20260506132735 58 161 6.0 14.0 0.07 0.16 0.16 93 1009.1
20260506132234 58 151 6.0 16.0 0.06 0.15 0.15 93 1009.2
20260506131734 58 135 7.0 16.0 0.07 0.15 0.15 92 1009.3
20260506131234 58 165 7.0 15.0 0.06 0.14 0.14 92 1009.4
20260506130734 58 163 7.0 14.0 0.06 0.14 0.14 92 1009.4